Radford, VA

1:02 PM EST on December 02, 2016 (GMT -0500)
New River Valley

Weather History for KPSK - May, 2013

Change the Weather History Date:

Wednesday, May 22, 2013

  Actual Average (KBCB) Record (KBCB)
Temperature  
Mean Temperature 72 °F 61 °F  
Max Temperature 84 °F 73 °F 88 °F (2009)
Min Temperature 59 °F 49 °F 28 °F (2002)
Degree Days  
Heating Degree Days 0 5  
Month to date heating degree days 165  
Since 1 July heating degree days 5370  
Cooling Degree Days 6 1  
Month to date cooling degree days 11  
Year to date cooling degree days 14  
Growing Degree Days 22 (Base 50)    
Moisture  
Dew Point 63 °F    
Average Humidity 87    
Maximum Humidity 100    
Minimum Humidity 40    
Precipitation  
Precipitation 0.11 in 0.16 in 1.62 in (2001)
Month to date precipitation 2.92  
Year to date precipitation 15.93  
Snow  
Snow 0.00 in - - ()
Month to date snowfall  
Since 1 July snowfall  
Snow Depth -    
Sea Level Pressure  
Sea Level Pressure 30.02 in    
Wind  
Wind Speed 2 mph (SSW)    
Max Wind Speed 16 mph    
Max Gust Speed 28 mph    
Visibility 9 miles    
Events Rain , Thunderstorm    
T = Trace of Precipitation, MM = Missing Value Source: NWS Daily Summary

Daily Weather History Graph

Daily Weather History Graph

Search for Another Location

Airport or City:

Trip Planner

Search our weather history database for the weather conditions in past years. The results will help you decide how hot, cold, wet, or windy it might be!

Date:

Astronomy

May. 22, 2013 Rise Set
Actual Time 6:09 AM EDT 8:30 PM EDT
Civil Twilight 5:39 AM EDT 8:59 PM EDT
Nautical Twilight 5:02 AM EDT 9:36 PM EDT
Astronomical Twilight 4:22 AM EDT 10:16 PM EDT
Moon 5:53 PM EDT (5/22) 4:08 AM EDT (5/22)
Length of Visible Light 15h 20m
Length of Day
14h 21m
Waxing Gibbous, 91% of the Moon is Illuminated
May 22
Waxing Gibbous
May 25
Full
May 31
Last Quarter
Jun 8
New
Jun 16
First Quarter

Hourly Weather History & Observations

Time (EDT) Temp. Heat Index Dew Point Humidity Pressure Visibility Wind Dir Wind Speed Gust Speed Precip Events Conditions
12:15 AM 68.0 °F - 60.8 °F 78% 30.07 in 10.0 mi Calm Calm - N/A   Clear
12:35 AM 66.2 °F - 60.8 °F 83% 30.07 in 10.0 mi Calm Calm - N/A   Clear
12:55 AM 66.2 °F - 60.8 °F 83% 30.07 in 10.0 mi Calm Calm - N/A   Clear
1:15 AM 64.4 °F - 60.8 °F 88% 30.06 in 10.0 mi SSE 3.5 mph - N/A   Clear
1:35 AM 64.4 °F - 60.8 °F 88% 30.05 in 10.0 mi South 3.5 mph - N/A   Clear
1:55 AM 64.4 °F - 60.8 °F 88% 30.04 in 10.0 mi Calm Calm - N/A   Clear
2:15 AM 62.6 °F - 60.8 °F 94% 30.03 in 10.0 mi Calm Calm - N/A   Clear
2:35 AM 62.6 °F - 60.8 °F 94% 30.03 in 10.0 mi Calm Calm - N/A   Clear
2:55 AM 62.6 °F - 60.8 °F 94% 30.02 in 10.0 mi Calm Calm - N/A   Clear
3:15 AM 60.8 °F - 60.8 °F 100% 30.01 in 10.0 mi SW 3.5 mph - N/A   Clear
3:35 AM 62.6 °F - 60.8 °F 94% 30.00 in 10.0 mi Calm Calm - N/A   Clear
3:55 AM 59.0 °F - 59.0 °F 100% 30.00 in 10.0 mi Calm Calm - N/A   Clear
4:15 AM 60.8 °F - 60.8 °F 100% 30.00 in 10.0 mi Calm Calm - N/A   Clear
4:35 AM 60.8 °F - 60.8 °F 100% 30.01 in 10.0 mi WNW 4.6 mph - N/A   Clear
4:55 AM 60.8 °F - 60.8 °F 100% 30.01 in 10.0 mi WSW 4.6 mph - N/A   Clear
5:15 AM 60.8 °F - 60.8 °F 100% 30.01 in 10.0 mi Calm Calm - N/A   Clear
5:35 AM 60.8 °F - 60.8 °F 100% 30.01 in 10.0 mi Calm Calm - N/A   Clear
5:55 AM 60.8 °F - 60.8 °F 100% 30.02 in 10.0 mi Calm Calm - N/A   Clear
6:15 AM 60.8 °F - 60.8 °F 100% 30.03 in 10.0 mi Calm Calm - N/A   Clear
6:35 AM 60.8 °F - 60.8 °F 100% 30.04 in 10.0 mi Calm Calm - N/A   Clear
6:55 AM 60.8 °F - 60.8 °F 100% 30.05 in 10.0 mi Calm Calm - N/A   Clear
7:15 AM 60.8 °F - 60.8 °F 100% 30.05 in 10.0 mi Calm Calm - N/A   Clear
7:35 AM 62.6 °F - 62.6 °F 100% 30.06 in 10.0 mi Calm Calm - N/A   Clear
7:55 AM 64.4 °F - 62.6 °F 94% 30.06 in 10.0 mi Calm Calm - N/A   Clear
8:15 AM 66.2 °F - 64.4 °F 94% 30.06 in 10.0 mi Calm Calm - N/A   Clear
8:35 AM 68.0 °F - 64.4 °F 88% 30.05 in 10.0 mi ESE 3.5 mph - N/A   Clear
8:55 AM 69.8 °F - 64.4 °F 83% 30.06 in 10.0 mi Calm Calm - N/A   Clear
9:15 AM 71.6 °F - 64.4 °F 78% 30.06 in 10.0 mi Calm Calm - N/A   Clear
9:35 AM 73.4 °F - 64.4 °F 73% 30.06 in 10.0 mi Calm Calm - N/A   Clear
9:55 AM 73.4 °F - 64.4 °F 73% 30.06 in 10.0 mi WSW 4.6 mph - N/A   Clear
10:15 AM 75.2 °F - 62.6 °F 65% 30.05 in 10.0 mi Calm Calm - N/A   Clear
10:35 AM 77.0 °F - 62.6 °F 61% 30.06 in 10.0 mi SW 3.5 mph - N/A   Clear
10:55 AM 78.8 °F - 62.6 °F 57% 30.05 in 10.0 mi Calm Calm - N/A   Clear
11:15 AM 80.6 °F 81.8 °F 62.6 °F 54% 30.05 in 10.0 mi South 3.5 mph - N/A   Clear
11:35 AM 80.6 °F 81.8 °F 62.6 °F 54% 30.04 in 10.0 mi SE 3.5 mph - N/A   Clear
11:55 AM 82.4 °F 82.9 °F 60.8 °F 48% 30.04 in 10.0 mi Calm Calm - N/A   Clear
12:15 PM 82.4 °F 82.9 °F 60.8 °F 48% 30.03 in 10.0 mi WSW 4.6 mph - N/A   Clear
12:35 PM 82.4 °F 82.5 °F 59.0 °F 45% 30.02 in 10.0 mi Calm Calm - N/A   Clear
12:55 PM 84.2 °F 84.4 °F 60.8 °F 45% 30.02 in 10.0 mi SW 6.9 mph - N/A   Clear
1:15 PM 84.2 °F 83.5 °F 57.2 °F 40% 30.01 in 10.0 mi SW 4.6 mph - N/A   Clear
1:35 PM 84.2 °F 83.5 °F 57.2 °F 40% 30.00 in 10.0 mi WSW 4.6 mph - N/A   Clear
1:55 PM 82.4 °F 83.4 °F 62.6 °F 51% 30.00 in 5.0 mi SSE 9.2 mph - 0.03 in Rain Heavy Rain
2:15 PM 73.4 °F - 66.2 °F 78% 30.00 in 7.0 mi SSE 5.8 mph - 0.01 in Rain Rain
2:35 PM 68.0 °F - 62.6 °F 83% 30.01 in 4.0 mi West 16.1 mph 27.6 mph 0.04 in Rain , Thunderstorm Heavy Thunderstorms and Rain
2:55 PM 68.0 °F - 62.6 °F 83% 30.01 in 10.0 mi West 6.9 mph - N/A Rain , Thunderstorm Light Thunderstorms and Rain
3:15 PM 66.2 °F - 64.4 °F 94% 30.03 in 7.0 mi SW 10.4 mph - 0.01 in Rain , Thunderstorm Thunderstorms and Rain
3:35 PM 66.2 °F - 64.4 °F 94% 30.00 in 10.0 mi Calm Calm - 0.01 in Rain Light Rain
3:55 PM 66.2 °F - 66.2 °F 100% 29.99 in 10.0 mi SSW 3.5 mph - 0.01 in Rain Light Rain
4:15 PM 68.0 °F - 66.2 °F 94% 29.99 in 10.0 mi South 8.1 mph - N/A Rain Light Rain
4:35 PM 68.0 °F - 66.2 °F 94% 29.98 in 7.0 mi SSW 8.1 mph - N/A Rain Rain
4:55 PM 68.0 °F - 66.2 °F 94% 29.98 in 10.0 mi WNW 3.5 mph - 0.01 in Rain Light Rain
5:15 PM 68.0 °F - 66.2 °F 94% 29.98 in 10.0 mi WSW 10.4 mph - N/A   Scattered Clouds
5:35 PM 69.8 °F - 66.2 °F 88% 30.00 in 10.0 mi SSW 8.1 mph - N/A Thunderstorm Mostly Cloudy
5:55 PM 68.0 °F - 66.2 °F 94% 30.00 in 10.0 mi SSW 8.1 mph - N/A Rain Light Rain
6:15 PM 66.2 °F - 66.2 °F 100% 30.00 in 5.0 mi SW 6.9 mph - 0.02 in Rain Heavy Rain
6:35 PM 66.2 °F - 66.2 °F 100% 29.99 in 7.0 mi Calm Calm - 0.01 in Rain Rain
6:55 PM 66.2 °F - 66.2 °F 100% 29.99 in 7.0 mi ENE 4.6 mph - 0.01 in Rain Light Rain
7:15 PM 64.4 °F - 64.4 °F 100% 29.99 in 7.0 mi Calm Calm - N/A   Scattered Clouds
7:35 PM 64.4 °F - 64.4 °F 100% 30.00 in 10.0 mi SE 3.5 mph - N/A   Clear
7:55 PM 64.4 °F - 64.4 °F 100% 30.01 in 10.0 mi SSE 3.5 mph - N/A   Clear
8:15 PM 64.4 °F - 64.4 °F 100% 30.02 in 7.0 mi South 3.5 mph - N/A   Clear
8:35 PM 64.4 °F - 64.4 °F 100% 30.02 in 7.0 mi SW 3.5 mph - N/A   Scattered Clouds
8:55 PM 64.4 °F - 64.4 °F 100% 30.01 in 7.0 mi Calm Calm - N/A   Light Drizzle
9:15 PM 64.4 °F - 64.4 °F 100% 30.00 in 10.0 mi Calm Calm - N/A Rain Light Rain
9:35 PM 64.4 °F - 64.4 °F 100% 30.01 in 7.0 mi Calm Calm - N/A   Mostly Cloudy
9:55 PM 64.4 °F - 64.4 °F 100% 30.01 in 7.0 mi SSE 3.5 mph - N/A Rain Light Rain
10:15 PM 64.4 °F - 64.4 °F 100% 30.02 in 7.0 mi Calm Calm - N/A Rain Light Rain
10:35 PM 64.4 °F - 64.4 °F 100% 30.02 in 10.0 mi Calm Calm - N/A   Clear
10:55 PM 64.4 °F - 64.4 °F 100% 30.03 in 10.0 mi SSW 6.9 mph - N/A   Scattered Clouds
11:15 PM 64.4 °F - 64.4 °F 100% 30.01 in 10.0 mi SE 3.5 mph - N/A Rain Rain
11:35 PM 64.4 °F - 64.4 °F 100% 30.03 in 10.0 mi West 3.5 mph - N/A Rain Light Rain
11:55 PM 62.6 °F - 62.6 °F 100% 30.01 in 10.0 mi SSW 6.9 mph - N/A Rain Light Rain